#timestamp,LO_Frequency,Hit,StdDev 
1522638015.1,286046996.3,N
1522638016.0,286046996.3,N
1522638035.8,286046993.3,N
1522638055.6,286046993.7,N
1522638075.5,286046996.3,N
1522638095.3,286046995.2,N
1522638115.2,286046997.3,N
1522638135.9,286046997.0,N
1522638155.7,286046999.4,N
1522638175.6,286046995.4,N
1522638195.4,286046993.8,N
1522638215.2,286046993.5,N
1522638235.1,286046993.6,N
1522638236.0,286046993.6,N
1522638255.8,286046993.6,Y
1522638275.7,286046998.8,P
1522638295.5,286046999.5,N
1522638315.3,286047001.0,N
1522638335.2,286047004.2,N
1522638355.9,286047001.4,N
1522638375.7,286046999.9,N
1522638395.6,286046999.3,N
1522638415.4,286046997.1,N
1522638435.2,286046995.1,N
1522638455.1,286046995.1,N
1522638456.0,286046995.1,N
1522638475.8,286046994.9,N
1522638495.7,286046997.3,N
1522638515.5,286046999.3,N
1522638535.3,286046999.5,N
1522638555.2,286046997.8,N
1522638575.0,286046997.7,N
1522638575.9,286046997.7,N
1522638595.7,286046995.2,N
1522638615.6,286046997.3,N
1522638635.4,286046999.8,N
1522638655.3,286046998.9,N
1522638675.1,286046996.8,N
1522638676.0,286046996.8,N
1522638695.8,286046997.9,N
1522638715.7,286046999.4,N
1522638735.5,286047002.5,N
1522638755.3,286047001.4,N
1522638775.2,286047004.4,N
1522638795.0,286047004.4,N
1522638795.9,286047004.4,N
1522638815.8,286047002.3,N
1522638835.6,286046998.3,N
1522638855.4,286046998.4,N
1522638875.3,286047000.4,N
1522638895.1,286046998.5,N
1522638915.8,286046998.1,N
1522638935.7,286046997.2,N
1522638955.5,286046999.1,N
1522638975.4,286046999.1,N
1522638995.2,286046999.2,N
1522639015.0,286046998.3,N
1522639015.9,286046998.3,N
1522639035.8,286046998.9,N
1522639055.6,286046999.3,N
1522639075.4,286047000.2,N
1522639095.3,286047001.1,N
1522639115.1,286046996.5,N
1522639135.9,286046999.1,N
1522639155.7,286046997.2,N
1522639175.5,286046998.7,N
1522639195.4,286046998.4,N
1522639215.2,286047001.1,N
1522639235.0,286046998.7,N
1522639236.0,286046998.7,N
1522639255.8,286046998.9,N
1522639275.6,286046998.9,N
1522639295.5,286046999.5,N
1522639315.3,286046998.5,N
1522639335.1,286046998.3,N
1522639355.9,286046998.9,N
1522639375.7,286046999.3,N
1522639395.5,286047001.2,N
1522639415.4,286047001.0,N
1522639435.2,286047000.7,N
1522639455.1,286046998.7,N
1522639456.0,286046998.7,N
1522639475.8,286047001.1,N
1522639495.6,286047001.6,N
1522639515.5,286047000.0,N
1522639535.3,286046998.4,N
1522639555.1,286047000.6,N
1522639575.9,286046998.9,N
1522639595.7,286046998.8,N
1522639615.6,286047001.0,N
1522639635.4,286046998.3,N
1522639655.2,286046999.9,N
1522639675.1,286046999.7,N
1522639676.0,286046999.7,N
1522639695.8,286047000.5,N
1522639715.6,286047002.2,N
1522639735.5,286047002.4,N
1522639755.3,286047003.6,N
1522639775.2,286047002.1,N
1522639795.9,286047003.5,N
1522639815.7,286047005.9,Y
1522639835.6,286047003.4,P
1522639855.4,286047003.4,N
1522639875.2,286047001.2,N
1522639895.1,286046998.9,N
1522639896.0,286046998.9,N
1522639915.8,286046998.6,N
1522639935.7,286047000.6,N
1522639955.5,286047001.9,N
1522639975.3,286047001.7,N
1522639995.2,286047002.2,N
1522640015.0,286047002.1,N
1522640015.9,286047002.1,N
1522640035.8,286047000.0,N
1522640055.6,286047001.1,N
1522640075.4,286047002.6,N
1522640095.3,286047001.4,N
1522640115.1,286047002.6,N
1522640116.0,286047002.6,N
1522640135.8,286047003.9,N
1522640155.7,286047002.5,N
1522640175.5,286047003.9,N
1522640195.3,286047002.5,N
1522640215.2,286047000.7,N
1522640235.0,286047000.6,N
1522640235.9,286047000.6,N
1522640255.8,286046998.4,N
1522640275.6,286047000.2,N
1522640295.4,286047002.5,N
1522640315.3,286047004.0,N
1522640335.1,286047003.2,N
1522640355.9,286047008.5,Y
1522640375.7,286047005.4,P
1522640395.5,286047005.2,N
1522640415.4,286047002.9,N
1522640435.2,286047003.2,N
1522640455.0,286047001.6,N
1522640455.9,286047001.6,N
1522640475.8,286047003.7,N
1522640495.6,286047001.5,N
1522640515.5,286047004.0,N
1522640535.3,286047002.5,N
1522640555.1,286047001.7,N
1522640575.9,286047002.0,N
1522640595.7,286046999.9,N
1522640615.5,286047002.5,N
1522640635.4,286047006.0,Y
1522640655.2,286047002.7,P
1522640675.0,286047002.8,P
1522640676.0,286047002.8,P
1522640695.8,286046999.3,Y
1522640715.6,286046995.3,P
1522640735.5,286046999.4,N
1522640755.3,286046998.1,N
1522640775.1,286046998.4,N
1522640795.9,286047000.0,N
1522640815.7,286047000.7,N
1522640835.6,286047001.0,N
1522640855.4,286047002.6,N
1522640875.2,286047002.8,N
1522640895.1,286047003.8,N
1522640896.0,286047003.8,N
1522640915.8,286047004.1,N
1522640935.6,286047001.9,N
1522640955.5,286047002.6,N
1522640975.3,286047001.6,N
1522640995.1,286047001.3,N
1522641015.9,286047003.7,N
1522641035.7,286047005.2,N
1522641055.6,286047003.9,N
1522641075.4,286047000.1,N
1522641095.2,286046999.8,N
1522641115.1,286047000.6,N
1522641116.0,286047000.6,N
1522641135.8,286047004.1,N
1522641155.6,286047005.7,N
1522641175.5,286047002.5,N
1522641195.3,286047003.8,N
1522641215.2,286047001.3,N
1522641235.9,286047004.0,N
1522641255.7,286047001.8,N
1522641275.6,286047001.0,N
1522641295.4,286047001.1,N
1522641315.2,286046999.2,N
1522641335.1,286046998.9,N
1522641336.0,286046998.9,N
1522641355.8,286046995.3,N
1522641375.7,286046994.9,N
1522641395.5,286046999.2,N
1522641415.3,286047000.6,N
1522641435.2,286047004.3,N
1522641455.0,286047002.5,N
1522641455.9,286047002.5,N
1522641475.7,286047000.7,N
1522641495.6,286047001.3,N
1522641515.4,286047003.7,N
1522641535.3,286047001.8,N
1522641555.1,286047002.0,N
1522641556.0,286047002.0,N
1522641575.8,286047000.8,N
1522641595.7,286046998.1,N
